Back to catalog

NOAA 16 DEB

AlivePO
NORAD 41349·DEBRIS·🇺🇸 United States

Launched Sep 21, 2000 from Vandenberg Space Force Base

Loading…

Next Passes (next 24 hours)

TLE

FreshSource: Space-Track

Epoch: Sep 14, 2026, 13:41 UTC

1 41349U 00055HS  26257.57074987  .00004115  00000-0  97204-3 0  9996
2 41349  98.9615 115.3686 0026451 186.9408 173.1425 14.54558657556442

Track NOAA 16 DEB in real time with AllMySat

Download on the App Store